Overview Statistics Trail Chart Weather Telemetry Raw packets
 

This is the latest recevied weather packets stored in our database for station/object KK4MOR. If no packets are shown the sender has not sent any weather packets the latest 10 day(s).

<< 9 10 11 12 13 14 15 >>
Time Temp. Humidity Pressure Rain* Wind** Luminosity Snow
1788378328 35.56° C 48% 1014.6 hPa 0 mm - - -
1788377435 34.44° C 53% 1014.9 hPa 0 mm - - -
1788376524 33.89° C 53% 1015 hPa 0 mm - - -
1788375623 34.44° C 50% 1015.1 hPa 0 mm - - -
1788374728 33.89° C 52% 1015.2 hPa 0 mm - - -
1788373836 32.78° C 55% 1015.4 hPa 0 mm - - -
1788372919 33.33° C 56% 1015.6 hPa 0 mm - - -
1788372017 33.89° C 55% 1015.7 hPa 0 mm - - -
1788371122 33.33° C 54% 1015.8 hPa 0 mm - - -
1788370224 33.89° C 52% 1016.2 hPa 0 mm - - -
1788369328 33.33° C 62% 1016.3 hPa 0 mm - - -
1788368411 32.78° C 58% 1016.5 hPa 0 mm - - -
1788367512 32.78° C 57% 1016.8 hPa 0 mm - - -
1788366606 32.22° C 56% 1016.9 hPa 0 mm - - -
1788365703 31.67° C 59% 1017.1 hPa 0 mm - - -
1788364801 32.22° C 60% 1017.2 hPa 0 mm - - -
1788363959 31.67° C 61% 1017.3 hPa 0 mm - - -
1788363067 31.67° C 63% 1017.3 hPa 0 mm - - -
1788362155 31.67° C 66% 1017.4 hPa 0 mm - - -
1788361286 30.56° C 68% 1017.3 hPa 0 mm - - -
1788360348 30.56° C 71% 1017.1 hPa 0 mm - - -
1788359448 30.56° C 67% 1017.1 hPa 0 mm - - -
1788358544 30° C 74% 1017.2 hPa 0 mm - - -
1788357639 28.33° C 80% 1017 hPa 0 mm - - -
1788356735 26.11° C 85% 1017 hPa 0 mm - - -

* Rain latest hour (hover to see other rain measurements)
** Current wind speed in m/s (hover to see current wind gust speed)